Weather History for Dunkirk, NY

Change the Weather History Date:

Tuesday, October 29, 2013

  Actual Average Record
Temperature  
Mean Temperature 38 °F -  
Max Temperature 48 °F 56 °F 74 °F (1971)
Min Temperature 28 °F 38 °F 21 °F (1965)
Degree Days  
Heating Degree Days 27    
Moisture  
Dew Point 29 °F    
Average Humidity 66    
Maximum Humidity 92    
Minimum Humidity 44    
Precipitation  
Precipitation 0.00 in - - ()
Sea Level Pressure  
Sea Level Pressure 30.39 in    
Wind  
Wind Speed 3 mph (NE)    
Max Wind Speed 8 mph    
Max Gust Speed -    
Visibility 10 miles    
Events      
Averages and records for this station are not official NWS values.
T = Trace of Precipitation, MM = Missing Value Source: NWS Daily Summary

Daily Weather History Graph

Daily Weather History Graph

Search for Another Location

Airport:

Trip Planner

Search our weather history database for the weather conditions in past years. The results will help you decide how hot, cold, wet, or windy it might be!

Date:

Astronomy

Oct. 29, 2013 Rise Set
Actual Time 7:47 AM EDT 6:13 PM EDT
Civil Twilight 7:18 AM EDT 6:42 PM EDT
Nautical Twilight 6:44 AM EDT 7:15 PM EDT
Astronomical Twilight 6:12 AM EDT 7:48 PM EDT
Moon 2:29 AM EDT (10/29) 3:32 PM EDT (10/29)
Length of Visible Light 11h 24m
Length of Day
10h 26m
Waning Crescent, 25% of the Moon is Illuminated
Oct 29
Waning Crescent
Nov 3
New
Nov 10
First Quarter
Nov 17
Full
Nov 25
Last Quarter

Hourly Weather History & Observations

Time (EDT) Temp. Windchill Dew Point Humidity Pressure Visibility Wind Dir Wind Speed Gust Speed Precip Events Conditions
12:53 AM 37.9 °F 35.5 °F 26.1 °F 62% 30.39 in 10.0 mi ENE 3.5 mph - N/A   Overcast
1:53 AM 37.0 °F 33.3 °F 27.0 °F 67% 30.40 in 10.0 mi ENE 4.6 mph - N/A   Overcast
2:53 AM 35.1 °F 32.2 °F 27.0 °F 72% 30.41 in 10.0 mi Variable 3.5 mph - N/A   Overcast
3:53 AM 35.1 °F 32.2 °F 27.0 °F 72% 30.41 in 10.0 mi ENE 3.5 mph - N/A   Overcast
4:53 AM 33.1 °F 30.0 °F 27.0 °F 78% 30.40 in 10.0 mi NE 3.5 mph - N/A   Scattered Clouds
5:53 AM 30.0 °F - 26.1 °F 85% 30.43 in 10.0 mi Calm Calm - N/A   Clear
6:53 AM 28.0 °F 24.2 °F 26.1 °F 92% 30.43 in 10.0 mi ESE 3.5 mph - N/A   Clear
7:53 AM 30.0 °F - 26.1 °F 85% 30.43 in 10.0 mi Calm Calm - N/A   Overcast
8:53 AM 34.0 °F - 30.0 °F 85% 30.44 in 10.0 mi Calm Calm - N/A   Overcast
9:53 AM 42.1 °F - 30.0 °F 62% 30.45 in 10.0 mi Calm Calm - N/A   Partly Cloudy
10:53 AM 45.0 °F 41.2 °F 28.9 °F 53% 30.45 in 10.0 mi North 6.9 mph - N/A   Overcast
11:53 AM 45.0 °F 40.6 °F 28.9 °F 53% 30.45 in 10.0 mi North 8.1 mph - N/A   Mostly Cloudy
12:53 PM 48.0 °F - 28.0 °F 46% 30.43 in 10.0 mi Variable 5.8 mph - N/A   Clear
1:53 PM 48.0 °F - 28.0 °F 46% 30.40 in 10.0 mi Variable 6.9 mph - N/A   Clear
2:53 PM 48.0 °F - 28.0 °F 46% 30.38 in 10.0 mi North 8.1 mph - N/A   Clear
3:53 PM 48.0 °F - 28.0 °F 46% 30.38 in 10.0 mi NNW 6.9 mph - N/A   Clear
4:53 PM 48.0 °F - 27.0 °F 44% 30.38 in 10.0 mi Variable 4.6 mph - N/A   Clear
5:53 PM 45.0 °F 43.5 °F 30.0 °F 56% 30.38 in 10.0 mi Variable 3.5 mph - N/A   Clear
6:53 PM 43.0 °F 41.3 °F 32.0 °F 65% 30.38 in 10.0 mi SE 3.5 mph - N/A   Partly Cloudy
7:53 PM 42.1 °F 40.2 °F 34.0 °F 73% 30.37 in 10.0 mi SE 3.5 mph - N/A   Overcast
8:53 PM 43.0 °F - 32.0 °F 65% 30.35 in 10.0 mi Calm Calm - N/A   Scattered Clouds
9:53 PM 42.1 °F 40.2 °F 33.1 °F 70% 30.33 in 10.0 mi East 3.5 mph - N/A   Overcast
10:53 PM 42.1 °F - 35.1 °F 76% 30.32 in 10.0 mi Calm Calm - N/A   Overcast
11:53 PM 42.1 °F - 37.0 °F 82% 30.29 in 10.0 mi Calm Calm - 0.00 in   Overcast